This is the latest recevied weather packets stored in our database for station/object N5YHM-13. If no packets are shown the sender has not sent any weather packets the latest 10 day(s).
| Time | Temp. | Humidity | Pressure | Rain* | Wind** | Luminosity | Snow |
|---|---|---|---|---|---|---|---|
| 1777670903 | 13.33° C | 99% | 1014.5 hPa | 253.24 mm | - | 3 W/m² | - |
| 1777670599 | 13.33° C | 99% | 1014.2 hPa | 247.14 mm | - | 3 W/m² | - |
| 1777670296 | 13.89° C | 99% | 1013.6 hPa | 239.52 mm | - | 3 W/m² | - |
| 1777669994 | 13.89° C | 99% | 1013.4 hPa | 233.43 mm | - | 3 W/m² | - |
| 1777669691 | 13.89° C | 99% | 1013.4 hPa | 227.33 mm | - | 3 W/m² | - |
| 1777669388 | 13.89° C | 99% | 1013.6 hPa | 225.55 mm | - | 3 W/m² | - |
| 1777669084 | 14.44° C | 99% | 1013.7 hPa | 221.49 mm | - | 3 W/m² | - |
| 1777668781 | 14.44° C | 99% | 1013.7 hPa | 214.88 mm | - | 3 W/m² | - |
| 1777668477 | 14.44° C | 99% | 1013.7 hPa | 208.79 mm | - | 2 W/m² | - |
| 1777668174 | 14.44° C | 99% | 1013.4 hPa | 199.9 mm | - | 2 W/m² | - |
| 1777667871 | 14.44° C | 99% | 1013.6 hPa | 192.02 mm | - | 2 W/m² | - |
| 1777667568 | 14.44° C | 99% | 1013.8 hPa | 187.71 mm | - | 2 W/m² | - |
| 1777667265 | 14.44° C | 99% | 1013.7 hPa | 180.09 mm | - | 2 W/m² | - |
| 1777666962 | 14.44° C | 99% | 1013.6 hPa | 180.09 mm | - | 3 W/m² | - |
| 1777666659 | 14.44° C | 99% | 1013.6 hPa | 180.09 mm | - | 1 W/m² | - |
| 1777666355 | 14.44° C | 99% | 1013.7 hPa | 180.09 mm | - | 2 W/m² | - |
| 1777666052 | 15° C | 99% | 1014.1 hPa | 180.09 mm | - | 2 W/m² | - |
| 1777665749 | 15.56° C | 99% | 1014.2 hPa | 180.09 mm | - | 2 W/m² | - |
| 1777665447 | 15.56° C | 99% | 1014.4 hPa | 180.09 mm | - | 2 W/m² | - |
| 1777665142 | 16.11° C | 99% | 1014.1 hPa | 180.09 mm | - | 2 W/m² | - |
| 1777664839 | 16.11° C | 99% | 1014.3 hPa | 165.1 mm | - | 1 W/m² | - |
| 1777664534 | 16.11° C | 99% | 1014.1 hPa | 151.13 mm | - | 1 W/m² | - |
| 1777664231 | 16.11° C | 99% | 1013 hPa | 141.73 mm | - | 4 W/m² | - |
| 1777663930 | 16.11° C | 99% | 1012.7 hPa | 138.68 mm | - | 1 W/m² | - |
| 1777663627 | 16.11° C | 99% | 1011.8 hPa | 137.41 mm | - | 1 W/m² | - |
* Rain latest hour (hover to see other rain measurements)
** Current wind speed in m/s (hover to see current wind gust speed)